Time,TemperatureF,DewpointF,PressureIn,WindDirection,WindDirectionDegrees,WindSpeedMPH,WindSpeedGustMPH,Humidity,HourlyPrecipIn,Conditions,Clouds,dailyrainin,SoftwareType,DateUTC
2013-11-08 00:07:00,33.6,27.2,30.28,West,270,0.0,-999.0,77,-99.99,,,0.00,Acu-Link.com,2013-11-08 06:07:00,
2013-11-08 00:22:00,33.4,26.7,30.28,SE,135,2.2,-999.0,76,-99.99,,,0.00,Acu-Link.com,2013-11-08 06:22:00,
2013-11-08 00:37:00,33.1,26.1,30.27,WNW,292,2.7,-999.0,75,-99.99,,,0.00,Acu-Link.com,2013-11-08 06:37:00,
2013-11-08 00:53:00,32.5,25.8,30.28,ESE,112,0.0,-999.0,76,-99.99,,,0.00,Acu-Link.com,2013-11-08 06:53:00,
2013-11-08 01:08:00,31.8,25.7,30.27,ESE,112,0.0,-999.0,78,-99.99,,,0.00,Acu-Link.com,2013-11-08 07:08:00,
2013-11-08 01:23:00,31.1,25.1,30.27,NNE,22,0.0,-999.0,78,-99.99,,,0.00,Acu-Link.com,2013-11-08 07:23:00,
2013-11-08 01:38:00,30.9,24.9,30.27,WNW,292,0.0,-999.0,78,-99.99,,,0.00,Acu-Link.com,2013-11-08 07:38:00,
2013-11-08 10:02:00,41.0,29.0,30.14,WSW,247,3.2,-999.0,62,-99.99,,,0.00,Acu-Link.com,2013-11-08 16:02:00,
2013-11-08 10:18:00,42.3,29.0,30.14,NW,315,3.7,-999.0,59,-99.99,,,0.00,Acu-Link.com,2013-11-08 16:18:00,
2013-11-08 10:33:00,43.7,29.5,30.12,SE,135,5.8,-999.0,57,-99.99,,,0.00,Acu-Link.com,2013-11-08 16:33:00,
2013-11-08 10:49:00,47.1,29.9,30.11,SW,225,4.2,-999.0,51,-99.99,,,0.00,Acu-Link.com,2013-11-08 16:49:00,
2013-11-08 11:04:00,47.8,29.1,30.09,ENE,67,11.9,-999.0,48,-99.99,,,0.00,Acu-Link.com,2013-11-08 17:04:00,
2013-11-08 11:19:00,50.4,29.9,30.08,ESE,112,2.7,-999.0,45,-99.99,,,0.00,Acu-Link.com,2013-11-08 17:19:00,
2013-11-08 11:34:00,50.2,29.7,30.07,West,270,2.2,-999.0,45,-99.99,,,0.00,Acu-Link.com,2013-11-08 17:34:00,
2013-11-08 11:50:00,49.8,28.2,30.04,SW,225,8.3,-999.0,43,-99.99,,,0.00,Acu-Link.com,2013-11-08 17:50:00,
2013-11-08 12:05:00,50.4,29.9,30.02,SSW,202,5.3,-999.0,45,-99.99,,,0.00,Acu-Link.com,2013-11-08 18:05:00,
2013-11-08 12:20:00,50.9,30.3,30.00,SSE,157,2.2,-999.0,45,-99.99,,,0.00,Acu-Link.com,2013-11-08 18:20:00,
2013-11-08 12:35:00,51.4,31.3,29.99,West,270,4.2,-999.0,46,-99.99,,,0.00,Acu-Link.com,2013-11-08 18:35:00,
2013-11-08 12:50:00,52.9,32.7,29.96,ESE,112,4.2,-999.0,46,-99.99,,,0.00,Acu-Link.com,2013-11-08 18:50:00,
2013-11-08 13:05:00,52.9,33.2,29.95,SE,135,11.4,-999.0,47,-99.99,,,0.00,Acu-Link.com,2013-11-08 19:05:00,
2013-11-08 13:21:00,52.7,33.6,29.94,South,180,6.8,-999.0,48,-99.99,,,0.00,Acu-Link.com,2013-11-08 19:21:00,
2013-11-08 13:36:00,53.2,33.5,29.92,NE,45,2.7,-999.0,47,-99.99,,,0.00,Acu-Link.com,2013-11-08 19:36:00,
2013-11-08 13:51:00,53.8,34.0,29.89,SSE,157,4.7,-999.0,47,-99.99,,,0.00,Acu-Link.com,2013-11-08 19:51:00,
2013-11-08 14:06:00,53.6,33.9,29.87,SSE,157,7.8,-999.0,47,-99.99,,,0.00,Acu-Link.com,2013-11-08 20:06:00,
2013-11-08 14:21:00,53.6,34.9,29.84,SW,225,10.4,-999.0,49,-99.99,,,0.00,Acu-Link.com,2013-11-08 20:21:00,
2013-11-08 14:36:00,54.9,35.6,29.84,SE,135,7.3,-999.0,48,-99.99,,,0.00,Acu-Link.com,2013-11-08 20:36:00,
2013-11-08 14:51:00,54.7,35.4,29.83,SW,225,11.4,-999.0,48,-99.99,,,0.00,Acu-Link.com,2013-11-08 20:51:00,
2013-11-08 15:06:00,54.9,36.6,29.84,North,0,2.7,-999.0,50,-99.99,,,0.00,Acu-Link.com,2013-11-08 21:06:00,
2013-11-08 15:21:00,54.5,36.7,29.83,SE,135,3.2,-999.0,51,-99.99,,,0.00,Acu-Link.com,2013-11-08 21:21:00,
2013-11-08 15:36:00,54.5,36.7,29.83,West,270,2.7,-999.0,51,-99.99,,,0.00,Acu-Link.com,2013-11-08 21:36:00,
2013-11-08 15:52:00,54.9,37.6,29.82,ESE,112,3.2,-999.0,52,-99.99,,,0.00,Acu-Link.com,2013-11-08 21:52:00,
2013-11-08 16:07:00,56.1,37.2,29.83,ESE,112,3.7,-999.0,49,-99.99,,,0.00,Acu-Link.com,2013-11-08 22:07:00,
2013-11-08 16:22:00,56.3,36.9,29.82,North,0,3.2,-999.0,48,-99.99,,,0.00,Acu-Link.com,2013-11-08 22:22:00,
2013-11-08 16:37:00,55.9,37.0,29.81,North,0,2.2,-999.0,49,-99.99,,,0.00,Acu-Link.com,2013-11-08 22:37:00,
2013-11-08 16:52:00,55.4,37.1,29.82,ESE,112,4.2,-999.0,50,-99.99,,,0.00,Acu-Link.com,2013-11-08 22:52:00,
2013-11-08 17:07:00,54.3,37.1,29.83,SSE,157,2.7,-999.0,52,-99.99,,,0.00,Acu-Link.com,2013-11-08 23:07:00,
2013-11-08 17:23:00,53.8,37.5,29.84,NNE,22,2.7,-999.0,54,-99.99,,,0.00,Acu-Link.com,2013-11-08 23:23:00,
2013-11-08 17:38:00,53.8,37.5,29.84,ESE,112,2.7,-999.0,54,-99.99,,,0.00,Acu-Link.com,2013-11-08 23:38:00,
2013-11-08 17:53:00,54.1,38.3,29.82,SE,135,4.2,-999.0,55,-99.99,,,0.00,Acu-Link.com,2013-11-08 23:53:00,
2013-11-08 18:08:00,53.8,38.0,29.80,ESE,112,2.7,-999.0,55,-99.99,,,0.00,Acu-Link.com,2013-11-09 00:08:00,
2013-11-08 18:23:00,53.6,38.3,29.80,SE,135,1.7,-999.0,56,-99.99,,,0.00,Acu-Link.com,2013-11-09 00:23:00,
2013-11-08 18:38:00,53.6,38.7,29.81,SW,225,3.2,-999.0,57,-99.99,,,0.00,Acu-Link.com,2013-11-09 00:38:00,
2013-11-08 18:54:00,53.4,38.6,29.80,SSW,202,5.3,-999.0,57,-99.99,,,0.00,Acu-Link.com,2013-11-09 00:54:00,
2013-11-08 19:09:00,52.7,38.8,29.80,South,180,2.7,-999.0,59,-99.99,,,0.00,Acu-Link.com,2013-11-09 01:09:00,
2013-11-08 19:24:00,52.7,39.2,29.80,SSW,202,2.7,-999.0,60,-99.99,,,0.00,Acu-Link.com,2013-11-09 01:24:00,
2013-11-08 19:39:00,52.3,39.3,29.79,SSW,202,2.7,-999.0,61,-99.99,,,0.00,Acu-Link.com,2013-11-09 01:39:00,
2013-11-08 19:54:00,52.3,39.3,29.79,NW,315,3.7,-999.0,61,-99.99,,,0.00,Acu-Link.com,2013-11-09 01:54:00,
2013-11-08 20:10:00,53.4,39.4,29.78,NE,45,4.2,-999.0,59,-99.99,,,0.00,Acu-Link.com,2013-11-09 02:10:00,
2013-11-08 20:25:00,53.6,39.2,29.78,WSW,247,1.7,-999.0,58,-99.99,,,0.00,Acu-Link.com,2013-11-09 02:25:00,
2013-11-08 20:40:00,53.4,39.0,29.78,ESE,112,1.7,-999.0,58,-99.99,,,0.00,Acu-Link.com,2013-11-09 02:40:00,
2013-11-08 20:55:00,53.1,39.2,29.77,SSE,157,2.2,-999.0,59,-99.99,,,0.00,Acu-Link.com,2013-11-09 02:55:00,
2013-11-08 21:10:00,53.2,38.4,29.78,WSW,247,1.7,-999.0,57,-99.99,,,0.00,Acu-Link.com,2013-11-09 03:10:00,
2013-11-08 21:25:00,53.6,38.3,29.78,NE,45,2.2,-999.0,56,-99.99,,,0.00,Acu-Link.com,2013-11-09 03:25:00,
2013-11-08 21:41:00,53.1,37.8,29.77,North,0,2.2,-999.0,56,-99.99,,,0.00,Acu-Link.com,2013-11-09 03:41:00,
2013-11-08 21:56:00,52.9,38.1,29.78,West,270,2.7,-999.0,57,-99.99,,,0.00,Acu-Link.com,2013-11-09 03:56:00,
2013-11-08 22:11:00,53.4,38.1,29.78,ENE,67,2.7,-999.0,56,-99.99,,,0.00,Acu-Link.com,2013-11-09 04:11:00,
2013-11-08 22:26:00,54.0,38.2,29.79,ESE,112,3.2,-999.0,55,-99.99,,,0.00,Acu-Link.com,2013-11-09 04:26:00,
2013-11-08 22:41:00,54.3,38.0,29.79,West,270,6.8,-999.0,54,-99.99,,,0.00,Acu-Link.com,2013-11-09 04:41:00,
2013-11-08 22:57:00,54.1,37.8,29.79,West,270,6.3,-999.0,54,-99.99,,,0.00,Acu-Link.com,2013-11-09 04:57:00,
2013-11-08 23:12:00,53.6,37.4,29.79,WNW,292,6.8,-999.0,54,-99.99,,,0.00,Acu-Link.com,2013-11-09 05:12:00,
2013-11-08 23:27:00,53.4,37.2,29.80,NW,315,4.2,-999.0,54,-99.99,,,0.00,Acu-Link.com,2013-11-09 05:27:00,
2013-11-08 23:42:00,52.9,37.2,29.80,WSW,247,11.4,-999.0,55,-99.99,,,0.00,Acu-Link.com,2013-11-09 05:42:00,
2013-11-08 23:57:00,52.3,37.1,29.81,West,270,4.2,-999.0,56,-99.99,,,0.00,Acu-Link.com,2013-11-09 05:57:00,